FW9022 Weather Reports


Display with metric or nautical units.
time (UTC)temp
F
wind
direction
speed
MPH
gust
MPH
rain 1hr
in
rain 24hr
in
rain mn
in
humidity
%
barometer
mb
20260510210832 77 40 1.0 4.0 0.00 0.00 0.00 37 1016.4
20260510205832 77 360 2.0 4.0 0.00 0.00 0.00 37 1016.5
20260510204830 77 36 2.0 6.0 0.00 0.00 0.00 38 1016.5
20260510203845 77 355 1.0 6.0 0.00 0.00 0.00 37 1016.5
20260510202819 77 341 2.0 4.0 0.00 0.00 0.00 39 1016.8
20260510201854 77 327 1.0 4.0 0.00 0.00 0.00 40 1016.8
20260510200841 77 24 1.0 6.0 0.00 0.00 0.00 38 1016.8
20260510195821 77 360 2.0 5.0 0.00 0.00 0.00 38 1016.9
20260510194835 77 21 3.0 4.0 0.00 0.00 0.00 38 1016.9
20260510193829 77 85 2.0 6.0 0.00 0.00 0.00 37 1016.9
20260510192848 77 355 1.0 4.0 0.00 0.00 0.00 40 1016.9
20260510191820 77 17 4.0 9.0 0.00 0.00 0.00 37 1016.9
20260510190845 77 313 2.0 4.0 0.00 0.00 0.00 39 1017.0
20260510185844 77 348 2.0 6.0 0.00 0.00 0.00 40 1017.0
20260510184820 76 14 2.0 5.0 0.00 0.00 0.00 38 1017.0
20260510183834 76 28 2.0 6.0 0.00 0.00 0.00 40 1017.0
20260510182828 76 72 1.0 5.0 0.00 0.00 0.00 40 1017.2
20260510181825 76 15 2.0 5.0 0.00 0.00 0.00 41 1017.2
20260510180850 77 23 1.0 7.0 0.00 0.00 0.00 44 1017.1
20260510175830 76 246 0.0 5.0 0.00 0.00 0.00 41 1017.3
20260510174823 76 121 0.0 4.0 0.00 0.00 0.00 42 1017.3
20260510173821 75 194 1.0 4.0 0.00 0.00 0.00 45 1017.5
20260510172834 75 355 2.0 4.0 0.00 0.00 0.00 45 1017.6
20260510171828 75 58 3.0 5.0 0.00 0.00 0.00 43 1017.6
20260510170837 74 84 1.0 7.0 0.00 0.00 0.00 43 1017.7
20260510165836 75 177 1.0 5.0 0.00 0.00 0.00 42 1017.7
20260510164829 75 120 2.0 3.0 0.00 0.00 0.00 43 1017.7
20260510163824 74 18 3.0 4.0 0.00 0.00 0.00 45 1018.0
20260510162822 73 5 2.0 5.0 0.00 0.00 0.00 47 1018.0
20260510161835 72 67 2.0 6.0 0.00 0.00 0.00 44 1018.0
20260510160839 72 355 4.0 6.0 0.00 0.00 0.00 43 1017.9
20260510155843 71 33 3.0 6.0 0.00 0.00 0.00 46 1018.0
20260510154835 72 9 3.0 5.0 0.00 0.00 0.00 46 1018.0
20260510153830 72 332 1.0 3.0 0.00 0.00 0.00 47 1018.3
20260510152824 71 44 2.0 4.0 0.00 0.00 0.00 48 1018.3
20260510151822 71 33 1.0 5.0 0.00 0.00 0.00 52 1018.3
20260510150847 71 332 1.0 4.0 0.00 0.00 0.00 55 1018.1
20260510145848 71 224 0.0 2.0 0.00 0.00 0.00 61 1018.3
20260510144821 70 226 0.0 3.0 0.00 0.00 0.00 66 1018.3
20260510143819 69 123 0.0 5.0 0.00 0.00 0.00 67 1018.5
20260510142834 68 206 1.0 2.0 0.00 0.00 0.00 69 1018.3
20260510141824 67 206 1.0 2.0 0.00 0.00 0.00 67 1018.3
20260510140834 67 206 0.0 2.0 0.00 0.00 0.00 70 1018.0
20260510135833 67 191 0.0 2.0 0.00 0.00 0.00 71 1018.0
20260510134848 66 191 0.0 2.0 0.00 0.00 0.00 73 1018.0
20260510133821 65 191 0.0 3.0 0.00 0.00 0.00 75 1018.4
20260510132819 64 196 0.0 1.0 0.00 0.00 0.00 76 1018.4
20260510131854 62 196 0.0 0.0 0.00 0.00 0.00 81 1018.4
20260510130859 62 196 0.0 0.0 0.00 0.00 0.00 81 1018.1
20260510125818 60 196 0.0 1.0 0.00 0.00 0.00 85 1017.5
20260510124837 58 196 0.0 0.0 0.00 0.00 0.00 88 1017.5
20260510123832 56 196 0.0 1.0 0.00 0.00 0.00 92 1017.6
20260510122846 54 196 0.0 0.0 0.00 0.00 0.00 93 1017.7
20260510121839 53 196 1.0 2.0 0.00 0.00 0.00 95 1017.7
20260510120847 52 57 0.0 2.0 0.00 0.00 0.00 96 1017.5
20260510115826 50 336 0.0 1.0 0.00 0.00 0.00 96 1017.3
20260510114821 49 336 0.0 2.0 0.00 0.00 0.00 96 1017.3
20260510113818 48 335 0.0 0.0 0.00 0.00 0.00 96 1017.3
20260510112832 47 335 0.0 1.0 0.00 0.00 0.00 96 1017.2
20260510111826 47 335 0.0 0.0 0.00 0.00 0.00 95 1017.2
20260510110850 46 335 0.0 0.0 0.00 0.00 0.00 95 1016.7
20260510105853 46 335 0.0 0.0 0.00 0.00 0.00 95 1016.4
20260510104847 46 64 0.0 0.0 0.00 0.00 0.00 95 1016.4
20260510103819 46 65 0.0 0.0 0.00 0.00 0.00 95 1016.1
20260510102852 46 65 0.0 0.0 0.00 0.00 0.00 95 1016.1
20260510101845 46 64 0.0 0.0 0.00 0.00 0.00 95 1016.1
20260510100852 47 64 0.0 0.0 0.00 0.00 0.00 95 1015.6
20260510095831 47 65 0.0 0.0 0.00 0.00 0.00 95 1015.5
20260510094825 47 65 0.0 0.0 0.00 0.00 0.00 95 1015.5
20260510093843 47 65 0.0 0.0 0.00 0.00 0.00 95 1015.4
20260510092836 47 65 0.0 0.0 0.00 0.00 0.00 95 1015.2
20260510091828 47 65 0.0 0.0 0.00 0.00 0.00 94 1015.2
20260510090913 48 65 0.0 0.0 0.00 0.00 0.00 95 1015.0
20260510085835 48 65 0.0 0.0 0.00 0.00 0.00 95 1014.8
20260510084829 48 65 0.0 0.0 0.00 0.00 0.00 95 1014.8
20260510083823 48 65 0.0 0.0 0.00 0.00 0.00 94 1014.6
20260510082837 49 65 0.0 0.0 0.00 0.00 0.00 94 1014.5
20260510081834 49 65 0.0 0.0 0.00 0.00 0.00 94 1014.5
20260510080839 49 65 0.0 0.0 0.00 0.00 0.00 94 1014.2
20260510075838 49 64 0.0 0.0 0.00 0.00 0.00 94 1014.0
20260510074835 49 64 0.0 0.0 0.00 0.00 0.00 94 1014.0
20260510073850 50 65 0.0 0.0 0.00 0.00 0.00 94 1014.8
20260510072823 50 65 0.0 0.0 0.00 0.00 0.00 94 1014.6
20260510071816 50 65 0.0 0.0 0.00 0.00 0.00 94 1014.6
20260510070844 50 65 0.0 0.0 0.00 0.00 0.00 94 1014.5
20260510065824 50 64 0.0 0.0 0.00 0.00 0.00 94 1014.2
20260510064818 51 64 0.0 0.0 0.00 0.00 0.00 94 1014.2
20260510063832 51 65 0.0 0.0 0.00 0.00 0.00 93 1014.1
20260510062830 51 65 0.0 0.0 0.00 0.00 0.00 93 1014.3
20260510061844 51 64 0.0 0.0 0.00 0.00 0.00 93 1014.3
20260510060908 52 65 0.0 0.0 0.00 0.00 0.00 93 1014.4
20260510055827 52 65 0.0 0.0 0.00 0.00 0.00 93 1014.3
20260510054824 52 65 0.0 0.0 0.00 0.00 0.00 92 1014.3
20260510053818 53 64 0.0 0.0 0.00 0.00 0.00 92 1014.4
20260510052833 53 65 0.0 0.0 0.00 0.00 0.00 92 1014.5
20260510051830 53 65 0.0 0.0 0.00 0.00 0.00 91 1014.5
20260510050835 54 65 0.0 0.0 0.00 0.00 0.00 91 1014.8
20260510045834 54 65 0.0 0.0 0.00 0.00 0.00 91 1014.7
20260510044829 54 65 0.0 0.0 0.00 0.00 0.00 91 1014.7
20260510043826 54 65 0.0 0.0 0.00 0.00 0.00 90 1014.6
20260510042819 55 64 0.0 0.0 0.00 0.00 0.00 89 1014.5
20260510041833 55 65 0.0 0.0 0.00 0.00 0.00 89 1014.5
20260510040843 56 64 0.0 0.0 0.00 0.00 0.00 88 1014.7
20260510035822 56 65 0.0 0.0 0.00 0.00 0.00 88 1014.3
20260510034836 56 64 0.0 0.0 0.00 0.00 0.00 88 1014.3
20260510033829 56 64 0.0 0.0 0.00 0.00 0.00 87 1014.6
20260510032827 57 65 0.0 0.0 0.00 0.00 0.00 87 1014.3
20260510031841 57 64 0.0 0.0 0.00 0.00 0.00 87 1014.3
20260510030845 57 65 0.0 0.0 0.00 0.00 0.00 85 1014.5
20260510025828 58 65 0.0 0.0 0.00 0.00 0.00 85 1014.3
20260510024823 58 65 0.0 0.0 0.00 0.00 0.00 84 1014.3
20260510023836 59 65 0.0 0.0 0.00 0.00 0.00 83 1014.1
20260510022830 59 65 0.0 0.0 0.00 0.00 0.00 82 1014.0
20260510021827 60 65 0.0 0.0 0.00 0.00 0.00 81 1014.0
20260510020832 60 65 0.0 0.0 0.00 0.00 0.00 80 1014.1
20260510015833 60 64 0.0 0.0 0.00 0.00 0.00 78 1013.8
20260510014832 61 65 0.0 0.0 0.00 0.00 0.00 78 1013.8
20260510013827 61 65 0.0 0.0 0.00 0.00 0.00 77 1013.6
20260510012821 62 64 0.0 0.0 0.00 0.00 0.00 75 1013.1
20260510011833 63 65 0.0 0.0 0.00 0.00 0.00 75 1013.1
20260510010842 64 64 0.0 0.0 0.00 0.00 0.00 73 1012.6
20260510005822 64 65 0.0 0.0 0.00 0.00 0.00 69 1012.4
20260510004835 65 65 0.0 0.0 0.00 0.00 0.00 68 1012.4
20260510003831 66 65 0.0 0.0 0.00 0.00 0.00 64 1012.1
20260510002829 67 64 0.0 0.0 0.00 0.00 0.00 61 1011.8
20260510001823 67 65 0.0 1.0 0.00 0.00 0.00 60 1011.8
20260510000909 68 65 0.0 3.0 0.00 0.00 0.00 60 1011.6
20260509235832 68 78 1.0 2.0 0.00 0.00 0.00 59 1011.6
20260509234826 68 88 2.0 3.0 0.00 0.00 0.00 59 1011.6
20260509233821 69 63 2.0 3.0 0.00 0.00 0.00 59 1011.1
20260509232836 69 80 1.0 5.0 0.00 0.00 0.00 59 1011.1
20260509231855 69 37 1.0 5.0 0.00 0.00 0.00 59 1011.1
20260509230840 69 83 1.0 7.0 0.00 0.00 0.00 60 1011.1
20260509225819 70 57 1.0 5.0 0.00 0.00 0.00 60 1011.2
20260509224818 70 61 1.0 5.0 0.00 0.00 0.00 60 1011.2
20260509223831 70 360 2.0 5.0 0.00 0.00 0.00 60 1011.3
20260509222824 70 56 0.0 4.0 0.00 0.00 0.00 59 1011.0
20260509221858 71 279 2.0 5.0 0.00 0.00 0.00 59 1011.0
20260509220845 71 61 4.0 6.0 0.00 0.00 0.00 57 1010.8
20260509215824 71 17 2.0 5.0 0.00 0.00 0.00 57 1010.5
20260509214858 72 15 1.0 5.0 0.00 0.00 0.00 56 1010.5
20260509213851 72 63 3.0 6.0 0.00 0.00 0.00 54 1009.9
20260509212827 73 360 2.0 7.0 0.00 0.00 0.00 52 1009.8
20260509211840 73 43 3.0 4.0 0.00 0.00 0.00 53 1009.8